Wind_Speed
23 21 19 21 22 22 23 22 23 24 25 26 29 30 29 27 25 25 25 25 24 24 23 22 22 21 21 22 22 22 22 22 23 23 22 22 22 23 22 23 24 24 23 23
24 23 23 23 23 23 23 23 24 24 26 25 29 30 29 28 28 27 27 27 26 25 24 23 23 22 22 22 22 23 23 23 24 24 23 22 23 22 22 24 24 24 24 24
24 24 23 25 24 23 24 24 25 25 26 27 30 33 31 30 29 29 29 28 27 26 25 24 23 23 23 23 23 23 23 24 25 24 23 23 23 23 24 24 24 25 25 25
24 24 26 26 23 24 26 25 27 28 28 30 31 32 32 31 30 30 28 29 28 26 26 26 25 24 24 23 24 24 24 24 25 25 25 24 23 23 24 24 25 25 24 24
25 24 26 27 27 26 26 27 28 30 29 31 31 31 30 29 30 31 29 28 29 28 28 27 27 26 26 26 25 25 25 26 26 27 26 25 25 25 25 25 25 24 24 24
28 27 27 29 28 26 26 29 29 30 31 31 31 31 31 30 29 29 30 30 30 29 29 29 28 28 27 27 27 27 27 27 27 27 26 26 26 26 26 25 24 24 24 24
28 29 30 30 28 26 28 30 30 32 32 32 32 32 32 31 30 29 29 30 31 31 30 30 29 28 28 28 28 27 27 28 28 27 27 27 26 26 26 26 26 25 25 24
29 30 32 31 29 28 30 30 30 32 32 32 32 32 32 31 30 30 30 30 30 30 30 30 30 29 29 29 28 28 28 28 28 28 28 28 27 26 26 27 26 26 26 24
28 30 31 30 30 30 31 31 31 31 31 31 31 31 30 30 30 31 31 31 30 30 30 30 30 30 29 29 29 28 28 28 29 29 29 28 28 28 27 27 26 26 26 25
29 30 30 30 29 30 32 32 32 31 30 30 29 30 30 30 30 30 30 30 31 31 30 30 30 30 30 29 29 28 28 28 28 28 29 29 28 28 28 27 27 26 26 25
30 29 29 29 30 31 31 31 29 30 31 31 30 30 29 30 30 29 29 30 30 30 30 30 30 30 29 29 29 29 29 29 29 29 29 29 28 27 27 27 27 26 26 26
28 28 30 30 31 30 31 30 30 31 32 31 31 31 31 30 31 30 30 29 29 30 30 30 31 31 30 30 29 29 30 29 29 29 29 29 29 28 27 26 25 25 25 25
29 30 30 31 32 32 31 31 30 30 30 29 29 30 30 30 29 29 29 29 30 30 30 30 30 30 29 29 29 29 29 29 29 28 28 28 28 28 27 25 24 24 23 24
31 31 30 31 32 32 32 31 31 30 30 29 29 29 29 30 30 29 29 29 30 30 30 30 29 29 28 29 29 28 28 28 28 28 28 27 27 27 26 24 23 22 23 24
31 32 32 32 32 31 31 31 31 30 29 29 29 29 29 29 29 29 29 28 29 29 29 29 29 29 29 29 29 28 28 27 27 28 28 27 26 26 25 24 24 23 23 23
30 30 31 31 31 31 31 30 29 29 29 28 29 29 29 28 28 28 28 29 28 27 27 28 28 28 28 28 29 29 28 27 27 27 27 26 25 25 25 25 24 23 23 23
28 28 29 29 30 30 30 30 30 29 29 29 29 29 29 28 27 27 28 27 28 27 27 27 28 28 29 28 28 28 27 26 26 26 26 25 24 24 25 24 23 23 23 23
28 28 29 28 29 29 29 30 30 30 30 29 30 29 29 29 28 29 29 27 27 28 27 27 28 28 27 27 27 27 26 26 26 26 25 25 24 24 23 22 22 22 23 23
27 27 28 29 29 29 29 28 28 29 29 30 30 30 29 28 28 29 29 27 27 27 27 27 27 27 26 25 25 25 26 26 25 25 25 24 24 24 23 23 22 22 23 22
25 26 26 28 28 28 27 26 25 26 27 28 28 28 28 28 28 27 27 27 26 26 27 26 25 24 24 24 24 25 25 25 24 24 24 24 23 23 23 23 23 23 23 23
25 25 26 26 27 27 27 26 25 25 25 26 26 25 26 26 26 26 25 25 25 25 24 24 24 23 23 23 23 24 24 24 23 23 23 23 23 23 23 23 23 23 23 22
24 24 24 24 25 25 25 24 24 24 23 23 23 23 23 23 23 24 23 22 22 22 21 21 21 21 21 22 22 22 22 22 21 21 22 22 22 23 23 23 22 21 21 21
21 21 21 22 22 22 23 23 23 22 21 21 21 21 21 21 21 21 21 20 21 21 20 20 20 21 21 21 21 21 21 21 20 20 20 20 21 21 21 21 20 20 20 19
19 19 19 20 21 21 21 21 21 20 20 19 19 19 20 20 19 19 19 19 20 20 19 19 20 20 20 20 20 20 19 19 18 18 19 19 19 19 19 20 20 20 19 19
19 18 18 18 19 19 20 20 19 18 18 18 18 18 18 18 17 17 17 18 18 19 19 20 19 19 19 19 19 18 18 18 17 17 18 18 18 18 19 19 19 19 19 19
18 18 18 18 18 18 17 17 16 16 16 16 16 16 17 16 16 16 15 16 17 18 18 18 18 18 18 19 18 18 18 18 17 17 17 18 18 18 18 18 18 19 19 19
16 16 16 16 17 16 16 16 16 16 16 16 16 15 15 15 15 15 15 15 16 17 18 18 18 18 18 19 18 18 18 18 18 18 18 18 19 19 19 19 19 19 19 19
Wind_Direction
249 250 253 255 255 259 262 261 260 263 265 267 271 275 275 277 281 285 284 284 285 288 289 287 286 286 287 289 293 295 296 296 297 299 300 300 300 300 299 301 300 299 296 293
253 252 251 255 254 255 260 262 261 262 265 267 269 274 278 279 281 281 282 282 283 285 288 288 284 283 284 286 290 293 294 296 298 298 299 298 297 299 300 301 299 298 297 295
254 255 256 255 253 257 261 262 263 262 265 266 269 273 277 278 279 281 282 280 280 282 284 285 284 283 283 286 289 292 295 297 300 299 297 295 295 297 299 300 298 298 297 295
254 256 257 255 256 259 259 262 264 266 266 266 268 273 275 277 277 278 278 278 280 281 281 282 282 283 285 287 288 292 294 295 297 299 299 297 296 298 299 300 299 299 298 297
252 253 257 260 258 259 261 263 265 267 268 269 271 274 274 275 276 277 276 277 279 279 279 280 281 281 283 285 287 289 291 294 296 297 297 298 297 298 299 299 300 300 300 298
254 253 254 258 264 266 266 266 267 269 269 270 271 271 273 274 276 275 274 277 278 277 277 279 280 281 281 282 284 286 288 290 293 295 296 296 296 297 297 298 300 300 300 299
255 256 257 260 264 268 268 268 270 270 270 271 271 271 273 274 275 275 276 276 276 277 278 278 278 280 281 282 283 284 287 289 291 293 294 293 293 294 296 296 296 297 298 298
256 254 255 261 263 265 268 270 271 271 271 271 271 270 271 271 272 274 275 277 278 277 277 277 277 278 280 281 281 283 285 287 289 290 290 291 291 292 295 295 294 294 294 295
255 257 260 262 262 265 270 271 271 271 272 271 271 270 270 270 270 270 272 275 276 277 277 277 277 277 278 278 279 280 283 285 286 288 289 291 292 292 293 293 293 292 291 291
253 255 257 259 262 265 268 271 273 273 273 271 271 271 273 273 272 270 272 274 275 276 277 277 276 276 276 276 277 278 281 283 286 288 289 290 292 292 291 291 292 291 289 289
253 256 257 260 262 264 267 269 272 274 275 275 274 273 272 272 273 274 273 274 275 276 277 278 276 275 276 276 276 277 279 282 285 287 288 289 290 292 293 290 288 288 288 286
251 254 258 260 263 265 267 269 271 273 275 277 277 275 275 275 275 274 274 275 275 277 278 279 279 276 275 275 276 277 278 280 283 286 288 289 290 291 291 290 289 288 288 286
254 257 260 262 264 266 267 269 272 273 275 277 278 278 278 278 276 274 273 275 277 278 278 279 280 279 277 275 276 277 278 279 283 285 288 290 290 292 291 290 290 289 289 287
254 257 261 263 264 268 270 271 273 274 275 275 276 276 277 277 276 275 275 276 276 277 278 278 279 279 279 277 276 277 278 280 282 284 288 290 291 292 291 288 288 290 290 290
256 259 262 264 264 265 269 271 272 273 273 274 274 277 278 278 278 278 276 275 276 277 278 278 278 278 279 279 277 277 278 280 281 282 286 289 290 291 291 288 288 290 292 291
257 260 261 263 264 266 269 270 272 274 275 275 275 277 277 277 277 278 276 275 275 277 277 278 279 278 277 279 278 276 277 278 280 282 284 286 288 289 290 288 286 290 293 293
258 259 262 263 264 267 269 270 271 272 273 274 275 275 275 274 274 276 275 275 276 276 276 277 277 278 276 277 279 279 276 276 277 278 280 284 287 289 288 289 290 290 291 294
259 259 262 264 265 267 268 270 269 270 271 272 273 275 275 275 275 277 278 278 277 277 279 279 278 278 277 278 279 279 277 276 275 276 279 281 283 286 285 287 291 293 294 295
260 262 264 264 266 268 269 270 270 271 271 272 272 273 274 275 275 276 277 277 277 278 278 277 277 277 276 278 279 278 278 278 276 276 280 279 280 282 283 284 288 292 294 293
263 264 265 266 267 269 270 271 271 273 273 273 273 273 274 274 274 275 275 275 276 277 277 276 276 276 278 280 279 278 277 276 276 277 278 278 277 279 280 283 286 289 292 292
267 267 267 268 268 270 272 274 276 278 278 276 275 275 275 274 274 275 275 275 276 276 276 275 276 277 277 277 277 277 276 275 275 275 275 276 277 279 281 283 286 289 290 291
269 270 270 270 270 271 272 274 277 279 280 278 276 275 276 276 275 274 274 275 275 276 276 275 277 278 277 277 276 276 275 273 274 276 276 277 278 281 283 286 289 290 290 290
271 271 271 270 271 271 273 276 277 277 278 278 276 274 276 278 278 276 273 272 273 275 276 279 280 281 282 280 277 277 276 275 276 277 278 280 281 283 286 287 289 291 289 287
270 271 272 272 272 272 273 275 275 274 275 277 279 278 277 277 277 274 273 273 273 274 277 280 280 280 279 280 280 278 274 272 275 278 279 280 281 283 286 288 289 288 287 288
269 269 271 273 273 274 274 274 273 274 274 275 278 278 278 279 279 277 276 275 273 274 276 277 278 278 277 279 279 275 273 273 274 277 280 282 282 283 286 287 288 287 287 288
267 268 269 271 271 272 273 274 276 276 276 277 277 276 275 277 277 277 278 277 274 276 276 277 279 279 279 279 277 274 275 275 274 277 280 282 281 283 287 288 289 287 287 286
269 268 270 272 271 271 271 271 272 275 276 275 276 278 280 282 282 282 282 281 279 281 283 282 280 279 279 280 278 276 276 277 277 275 276 278 279 281 284 286 286 284 284 285
Height
5862 5863 5865 5865 5866 5867 5867 5866 5866 5865 5864 5863 5861 5858 5856 5855 5854 5853 5853 5852 5851 5850 5849 5848 5847 5846 5845 5843 5842 5841 5839 5837 5835 5833 5831 5829 5827 5825 5823 5821 5820 5818 5815 5813
5855 5856 5857 5858 5859 5860 5860 5860 5859 5859 5858 5856 5854 5852 5850 5850 5848 5848 5847 5846 5845 5844 5843 5842 5841 5840 5839 5838 5837 5835 5834 5832 5830 5828 5825 5823 5822 5820 5817 5815 5814 5812 5810 5808
5848 5849 5850 5851 5852 5853 5853 5853 5853 5852 5851 5849 5847 5845 5844 5844 5843 5841 5840 5839 5838 5838 5837 5836 5835 5834 5833 5832 5830 5829 5828 5826 5824 5821 5819 5818 5816 5814 5812 5810 5807 5805 5803 5802
5841 5843 5842 5845 5845 5846 5845 5845 5845 5844 5843 5841 5840 5839 5837 5836 5836 5835 5833 5831 5832 5831 5830 5830 5829 5828 5827 5825 5824 5823 5821 5820 5818 5816 5814 5812 5810 5808 5806 5803 5801 5799 5797 5795
5834 5835 5835 5836 5836 5837 5837 5837 5837 5835 5834 5833 5832 5830 5830 5829 5828 5827 5825 5824 5825 5824 5823 5822 5822 5821 5820 5819 5818 5816 5815 5814 5812 5810 5808 5805 5803 5802 5800 5797 5795 5793 5791 5790
5825 5826 5828 5829 5829 5829 5830 5828 5827 5826 5825 5825 5824 5823 5822 5821 5820 5819 5818 5817 5817 5816 5815 5815 5815 5814 5813 5812 5811 5810 5809 5807 5806 5803 5801 5799 5797 5795 5793 5791 5789 5787 5785 5783
5817 5818 5819 5820 5821 5822 5822 5820 5819 5818 5817 5816 5816 5815 5814 5813 5812 5811 5810 5809 5809 5808 5808 5807 5807 5806 5806 5805 5804 5803 5802 5800 5799 5797 5795 5793 5791 5789 5787 5785 5783 5781 5779 5777
5810 5811 5813 5813 5813 5814 5812 5811 5811 5810 5809 5808 5807 5806 5805 5805 5804 5803 5802 5801 5801 5800 5799 5799 5799 5798 5798 5797 5796 5796 5795 5793 5792 5790 5787 5786 5783 5781 5780 5778 5776 5774 5773 5771
5802 5803 5803 5804 5804 5804 5802 5802 5801 5800 5800 5799 5799 5798 5797 5796 5795 5795 5794 5793 5792 5791 5791 5790 5790 5790 5789 5789 5788 5787 5787 5786 5784 5783 5780 5778 5776 5775 5773 5771 5769 5767 5766 5764
5792 5792 5794 5795 5795 5795 5794 5794 5793 5792 5791 5791 5791 5789 5788 5788 5786 5785 5785 5785 5784 5783 5783 5782 5782 5781 5781 5780 5780 5779 5778 5778 5777 5775 5773 5771 5769 5767 5765 5764 5762 5760 5759 5757
5784 5785 5786 5786 5786 5786 5786 5786 5785 5784 5783 5783 5782 5781 5780 5779 5778 5777 5777 5776 5775 5775 5774 5773 5773 5773 5772 5772 5771 5771 5770 5770 5769 5768 5766 5765 5763 5760 5758 5756 5755 5753 5752 5750
5775 5776 5777 5777 5776 5777 5778 5778 5777 5776 5776 5775 5774 5773 5772 5770 5770 5770 5769 5768 5767 5766 5766 5765 5764 5764 5763 5763 5763 5762 5762 5762 5761 5760 5759 5757 5756 5754 5751 5750 5747 5746 5744 5743
5767 5768 5768 5769 5769 5769 5769 5769 5768 5768 5767 5767 5766 5765 5763 5762 5761 5761 5761 5760 5759 5758 5758 5757 5756 5755 5755 5755 5754 5754 5753 5753 5752 5752 5751 5749 5748 5746 5744 5742 5740 5739 5737 5735
5758 5759 5760 5761 5760 5760 5761 5761 5760 5760 5759 5758 5757 5756 5755 5754 5754 5753 5752 5751 5750 5749 5749 5748 5748 5747 5747 5746 5746 5745 5745 5745 5744 5744 5743 5742 5740 5738 5737 5735 5734 5732 5731 5729
5750 5752 5752 5752 5751 5752 5752 5751 5751 5751 5751 5751 5750 5748 5747 5746 5745 5744 5743 5742 5741 5741 5740 5740 5739 5739 5739 5738 5738 5737 5737 5737 5736 5736 5735 5734 5733 5731 5730 5728 5727 5726 5724 5723
5742 5743 5743 5744 5743 5743 5743 5743 5742 5743 5743 5742 5741 5740 5739 5738 5737 5736 5735 5734 5733 5732 5732 5731 5731 5731 5730 5730 5729 5729 5729 5729 5729 5728 5727 5727 5725 5724 5723 5721 5720 5719 5718 5716
5733 5734 5734 5735 5735 5735 5735 5735 5734 5734 5734 5734 5733 5732 5731 5730 5729 5728 5727 5727 5726 5725 5724 5723 5723 5722 5722 5721 5721 5721 5721 5721 5721 5720 5720 5719 5719 5717 5716 5715 5713 5712 5711 5709
5725 5726 5726 5726 5726 5726 5726 5726 5726 5726 5725 5725 5724 5724 5723 5722 5721 5720 5719 5718 5718 5718 5717 5716 5715 5714 5714 5714 5713 5713 5713 5713 5713 5713 5713 5712 5711 5710 5709 5708 5707 5706 5704 5703
5717 5718 5718 5718 5718 5718 5718 5718 5717 5717 5717 5716 5716 5715 5714 5714 5713 5712 5711 5711 5710 5710 5709 5709 5708 5707 5707 5707 5706 5706 5706 5706 5706 5706 5705 5704 5704 5703 5703 5702 5700 5699 5698 5696
5710 5710 5710 5710 5710 5710 5710 5709 5708 5708 5708 5707 5707 5707 5706 5705 5705 5704 5704 5703 5703 5702 5702 5701 5700 5699 5699 5699 5699 5699 5698 5698 5698 5698 5698 5697 5697 5696 5695 5695 5693 5692 5691 5690
5703 5703 5703 5703 5703 5702 5702 5702 5702 5701 5701 5700 5699 5699 5698 5698 5697 5696 5696 5696 5696 5695 5694 5694 5694 5693 5693 5693 5692 5691 5691 5691 5691 5691 5691 5690 5690 5689 5688 5687 5686 5685 5684 5683
5696 5696 5696 5696 5696 5695 5695 5695 5695 5694 5693 5693 5692 5691 5691 5690 5690 5689 5689 5690 5689 5688 5687 5687 5687 5687 5686 5686 5685 5685 5685 5685 5685 5685 5684 5684 5683 5682 5681 5681 5680 5679 5677 5676
5689 5689 5689 5689 5689 5688 5689 5688 5688 5687 5687 5686 5685 5685 5684 5683 5683 5683 5683 5683 5683 5682 5682 5681 5681 5680 5680 5679 5679 5679 5679 5679 5679 5678 5678 5678 5677 5676 5675 5674 5673 5672 5671 5670
5683 5683 5683 5683 5683 5683 5682 5682 5681 5681 5680 5680 5679 5678 5678 5678 5677 5677 5677 5677 5677 5676 5676 5676 5675 5675 5674 5674 5673 5673 5673 5673 5673 5673 5673 5672 5672 5671 5670 5669 5667 5666 5666 5665
5678 5678 5678 5678 5677 5677 5677 5676 5675 5675 5675 5675 5674 5673 5673 5672 5672 5672 5672 5671 5671 5671 5671 5670 5670 5670 5669 5669 5668 5668 5668 5668 5668 5668 5668 5667 5667 5666 5665 5663 5662 5661 5661 5660
5672 5672 5672 5672 5672 5672 5671 5671 5670 5670 5670 5670 5669 5669 5668 5668 5667 5667 5667 5667 5666 5666 5666 5665 5665 5664 5664 5663 5663 5663 5662 5662 5662 5662 5662 5662 5662 5661 5659 5658 5657 5656 5656 5655
5667 5667 5667 5667 5666 5666 5666 5666 5666 5665 5665 5665 5665 5664 5664 5664 5663 5663 5663 5662 5662 5661 5661 5660 5660 5659 5659 5658 5657 5657 5657 5657 5657 5657 5657 5657 5656 5656 5654 5653 5653 5652 5651 5650